FW1440 Weather Reports


time (UTC)temp
C
wind
direction
speed
KPH
gust
KPH
rain 1hr
cm
rain 24hr
cm
rain mn
cm
humidity
%
barometer
mb
20260507110204 10 114 3.2 6.4 0.00 0.00 0.00 85 1018.7
20260507105702 10 117 1.6 6.4 0.00 0.00 0.00 85 1018.7
20260507105159 10 118 1.6 6.4 0.00 0.00 0.00 85 1018.7
20260507104658 10 129 1.6 8.0 0.00 0.00 0.00 85 1018.6
20260507104156 10 127 1.6 8.0 0.00 0.00 0.00 84 1018.6
20260507103654 10 123 1.6 6.4 0.00 0.00 0.00 85 1018.7
20260507103154 10 119 3.2 8.0 0.00 0.00 0.00 85 1018.8
20260507102653 10 112 3.2 8.0 0.00 0.00 0.00 85 1018.8
20260507102148 10 117 1.6 4.8 0.00 0.00 0.00 85 1018.9
20260507101647 10 65 0.0 1.6 0.00 0.00 0.00 84 1018.9
20260507100646 10 65 1.6 3.2 0.00 0.00 0.00 84 1018.8
20260507100146 10 65 1.6 3.2 0.00 0.00 0.00 84 1018.8
20260507095644 10 65 0.0 3.2 0.00 0.00 0.00 84 1018.8
20260507095142 10 118 0.0 1.6 0.00 0.00 0.00 83 1018.7
20260507094642 10 118 0.0 1.6 0.00 0.00 0.00 83 1018.7
20260507094142 10 118 0.0 3.2 0.00 0.00 0.00 83 1018.6
20260507093640 10 118 1.6 4.8 0.00 0.00 0.00 83 1018.7
20260507092638 10 71 1.6 6.4 0.00 0.00 0.00 84 1018.7
20260507091638 10 137 1.6 4.8 0.00 0.00 0.00 84 1018.8
20260507091138 10 141 1.6 4.8 0.00 0.00 0.00 84 1018.8
20260507090637 10 131 3.2 12.9 0.00 0.00 0.00 84 1018.8
20260507085635 10 139 3.2 8.0 0.00 0.00 0.00 84 1018.7
20260507084636 10 115 3.2 11.3 0.00 0.00 0.00 84 1018.6
20260507084136 10 145 3.2 11.3 0.00 0.00 0.00 84 1018.6
20260507083636 10 135 3.2 11.3 0.00 0.00 0.00 84 1018.7
20260507083136 10 149 4.8 11.3 0.00 0.00 0.00 84 1018.7
20260507082636 10 124 3.2 11.3 0.00 0.00 0.00 84 1018.7
20260507082135 10 133 4.8 14.5 0.00 0.00 0.00 84 1018.7
20260507081136 11 151 6.4 14.5 0.00 0.00 0.00 84 1018.6
20260507080635 11 141 4.8 14.5 0.00 0.00 0.00 84 1018.6
20260507075636 11 116 4.8 14.5 0.00 0.00 0.00 84 1018.6
20260507075134 11 132 4.8 17.7 0.00 0.00 0.00 84 1018.7
20260507074634 11 122 3.2 17.7 0.00 0.00 0.00 84 1018.6
20260507074133 11 114 3.2 9.7 0.00 0.00 0.00 84 1018.6
20260507073634 11 118 1.6 6.4 0.00 0.00 0.00 83 1018.7
20260507072633 11 93 3.2 11.3 0.00 0.00 0.00 82 1018.6
20260507072134 11 144 1.6 8.0 0.00 0.00 0.00 82 1018.5
20260507071635 11 126 1.6 8.0 0.00 0.00 0.00 82 1018.5
20260507071131 11 173 3.2 12.9 0.00 0.00 0.00 82 1018.5
20260507070632 11 153 3.2 12.9 0.00 0.00 0.00 82 1018.5
20260507065116 11 88 1.6 8.0 0.00 0.00 0.00 81 1018.5
20260507064617 11 93 3.2 11.3 0.00 0.00 0.00 81 1018.5
20260507064117 11 134 3.2 11.3 0.00 0.00 0.00 81 1018.3
20260507063617 11 114 3.2 8.0 0.00 0.00 0.00 81 1018.3
20260507063115 11 105 4.8 14.5 0.00 0.00 0.00 81 1018.3
20260507062615 11 106 4.8 14.5 0.00 0.00 0.00 81 1018.2
20260507062117 11 80 3.2 14.5 0.00 0.00 0.00 81 1018.1
20260507061615 11 122 3.2 11.3 0.00 0.00 0.00 81 1018.1
20260507061115 11 122 3.2 11.3 0.00 0.00 0.00 81 1017.9
20260507060616 11 116 4.8 14.5 0.00 0.00 0.00 80 1018.0
20260507060113 11 176 6.4 19.3 0.00 0.00 0.00 80 1017.9
20260507055612 12 144 6.4 20.9 0.00 0.00 0.00 80 1017.9
20260507055112 11 97 6.4 20.9 0.00 0.00 0.00 80 1017.8
20260507054612 11 118 8.0 20.9 0.00 0.00 0.00 81 1017.9
20260507054113 11 132 8.0 25.7 0.00 0.00 0.00 82 1017.9
20260507053612 11 127 8.0 25.7 0.00 0.00 0.00 83 1018.0
20260507052612 11 103 8.0 25.7 0.00 0.00 0.00 83 1018.2
20260507051612 11 176 8.0 22.5 0.00 0.00 0.00 83 1018.2
20260507051112 11 126 8.0 22.5 0.00 0.00 0.00 83 1018.1
20260507050610 11 180 6.4 17.7 0.00 0.00 0.00 82 1018.2
20260507045611 12 154 6.4 17.7 0.00 0.00 0.00 82 1018.2
20260507044604 12 145 6.4 19.3 0.00 0.00 0.00 82 1018.2
20260507044104 12 79 6.4 20.9 0.00 0.00 0.00 83 1018.2
20260507043604 12 107 6.4 20.9 0.00 0.00 0.00 83 1018.3
20260507043104 12 122 8.0 19.3 0.00 0.00 0.00 83 1018.2
20260507042604 12 120 6.4 19.3 0.00 0.00 0.00 83 1018.3
20260507042105 12 115 4.8 17.7 0.00 0.00 0.00 83 1018.2
20260507041604 12 117 4.8 17.7 0.00 0.00 0.00 83 1018.1
20260507041104 12 117 6.4 16.1 0.00 0.00 0.00 83 1018.1
20260507040059 12 118 6.4 19.3 0.00 0.00 0.00 83 1018.0
20260507035556 12 108 4.8 16.1 0.00 0.00 0.00 84 1017.9
20260507035055 12 47 4.8 16.1 0.00 0.00 0.00 84 1017.8
20260507034554 12 68 6.4 17.7 0.00 0.00 0.00 84 1018.0
20260507034055 12 113 4.8 17.7 0.00 0.00 0.00 84 1018.0
20260507033554 12 142 4.8 12.9 0.00 0.00 0.00 83 1018.0
20260507033054 12 222 4.8 12.9 0.00 0.00 0.00 83 1017.9
20260507032554 12 116 4.8 12.9 0.00 0.00 0.00 83 1018.0
20260507032054 12 116 3.2 14.5 0.00 0.00 0.00 83 1018.0
20260507031555 12 97 3.2 14.5 0.00 0.00 0.00 82 1018.0
20260507031054 12 111 3.2 12.9 0.00 0.00 0.00 82 1017.9
20260507030555 12 113 3.2 12.9 0.00 0.00 0.00 82 1018.1
20260507030046 12 112 1.6 8.0 0.00 0.00 0.00 82 1017.9
20260507025544 12 128 1.6 8.0 0.00 0.00 0.00 82 1018.0
20260507025038 12 60 3.2 11.3 0.00 0.00 0.00 82 1018.0
20260507024536 12 126 1.6 11.3 0.00 0.00 0.00 82 1018.0
20260507024035 12 108 1.6 6.4 0.00 0.00 0.00 81 1018.0
20260507023536 12 119 1.6 6.4 0.00 0.00 0.00 81 1017.9
20260507023037 12 139 0.0 4.8 0.00 0.00 0.00 81 1017.9
20260507022536 12 138 1.6 4.8 0.00 0.00 0.00 81 1018.0
20260507022036 12 58 1.6 6.4 0.00 0.00 0.00 81 1018.0
20260507021535 12 58 1.6 6.4 0.00 0.00 0.00 81 1018.0
20260507021033 12 81 1.6 4.8 0.00 0.00 0.00 81 1017.9
20260507020533 12 79 1.6 4.8 0.00 0.00 0.00 81 1018.0
20260507015530 12 126 1.6 6.4 0.00 0.00 0.00 81 1018.0
20260507015030 12 97 1.6 6.4 0.00 0.00 0.00 81 1018.0
20260507014530 12 121 3.2 8.0 0.00 0.00 0.00 81 1017.9
20260507013528 12 135 3.2 9.7 0.00 0.00 0.00 81 1017.9
20260507013023 12 153 3.2 9.7 0.00 0.00 0.00 81 1017.9
20260507012519 12 103 3.2 9.7 0.00 0.00 0.00 81 1017.9
20260507012016 12 118 3.2 9.7 0.00 0.00 0.00 81 1017.9
20260507011516 12 127 3.2 9.7 0.00 0.00 0.00 81 1017.9
20260507011014 12 135 3.2 8.0 0.00 0.00 0.00 80 1018.0
20260507010514 13 106 4.8 16.1 0.00 0.00 0.00 80 1018.0
20260507010014 13 135 3.2 16.1 0.00 0.00 0.00 79 1018.0
20260507005013 13 135 3.2 9.7 0.00 0.00 0.00 79 1018.0
20260507004514 13 110 3.2 11.3 0.00 0.00 0.00 79 1018.0
20260507004012 13 100 4.8 11.3 0.00 0.00 0.00 79 1018.0
20260507003012 13 103 3.2 12.9 0.00 0.00 0.00 79 1018.0
20260507002514 13 127 3.2 14.5 0.00 0.00 0.00 80 1018.0
20260507002004 13 145 4.8 14.5 0.00 0.00 0.00 79 1018.0
20260507001457 13 161 4.8 11.3 0.00 0.00 0.00 79 1018.0
20260507000952 13 129 3.2 12.9 0.00 0.00 0.00 79 1018.0
20260507000451 13 125 4.8 12.9 0.00 0.00 0.00 79 1018.0
20260506235947 13 139 6.4 12.9 0.00 0.00 0.00 79 1018.0
20260506235449 13 122 6.4 17.7 0.00 0.00 0.00 78 1018.0
20260506234948 13 111 4.8 17.7 0.00 0.00 0.00 78 1018.0
20260506234445 13 140 4.8 14.5 0.00 0.00 0.00 77 1017.9
20260506233945 13 113 4.8 14.5 0.00 0.00 0.00 76 1018.0
20260506233445 14 160 3.2 9.7 0.00 0.00 0.00 77 1018.0
20260506232944 14 133 3.2 9.7 0.00 0.00 0.00 76 1018.1
20260506232442 14 145 3.2 9.7 0.00 0.00 0.00 76 1018.0
20260506231947 14 137 3.2 14.5 0.00 0.00 0.00 77 1018.1
20260506231441 13 128 4.8 14.5 0.00 0.00 0.00 77 1018.0
20260506230942 13 143 4.8 14.5 0.00 0.00 0.00 77 1018.1
20260506230442 13 134 4.8 14.5 0.00 0.00 0.00 76 1018.0
20260506225942 14 122 3.2 12.9 0.00 0.00 0.00 77 1018.0
20260506225441 13 143 4.8 12.9 0.00 0.00 0.00 77 1018.2
20260506224440 13 160 3.2 12.9 0.00 0.00 0.00 78 1018.2
20260506223439 13 148 4.8 16.1 0.00 0.00 0.00 76 1018.3
20260506222940 13 137 4.8 16.1 0.00 0.00 0.00 76 1018.3
20260506222439 14 134 4.8 14.5 0.00 0.00 0.00 76 1018.3
20260506221940 14 176 4.8 14.5 0.00 0.00 0.00 76 1018.3
20260506221439 14 170 4.8 12.9 0.00 0.00 0.00 76 1018.2
20260506220940 14 162 3.2 12.9 0.00 0.00 0.00 76 1018.2
20260506220440 14 153 3.2 12.9 0.00 0.00 0.00 78 1018.2
20260506215939 13 109 4.8 12.9 0.00 0.00 0.00 75 1018.3
20260506215439 13 132 4.8 12.9 0.00 0.00 0.00 78 1018.2
20260506214940 14 106 4.8 14.5 0.00 0.00 0.00 76 1018.2
20260506214440 14 137 4.8 14.5 0.00 0.00 0.00 75 1018.2
20260506213940 14 174 4.8 14.5 0.00 0.00 0.00 75 1018.3
20260506213440 15 149 4.8 14.5 0.00 0.00 0.00 75 1018.3
20260506212440 15 110 4.8 12.9 0.00 0.00 0.00 76 1018.3
20260506211439 15 112 3.2 12.9 0.00 0.00 0.00 76 1018.3
20260506210939 14 120 4.8 14.5 0.00 0.00 0.00 79 1018.2
20260506210437 14 110 6.4 16.1 0.00 0.00 0.00 76 1018.3
20260506205937 14 138 4.8 16.1 0.00 0.00 0.00 78 1018.2
20260506205437 14 126 4.8 12.9 0.00 0.00 0.00 78 1018.3
20260506204935 14 108 4.8 14.5 0.00 0.00 0.00 77 1018.4
20260506203935 13 91 4.8 12.9 0.00 0.00 0.00 80 1018.2
20260506203435 13 128 4.8 12.9 0.00 0.00 0.00 81 1018.3
20260506202435 12 118 4.8 11.3 0.00 0.00 0.00 82 1018.4
20260506201936 12 86 3.2 11.3 0.00 0.00 0.00 83 1018.4
20260506201435 12 125 3.2 11.3 0.00 0.00 0.00 83 1018.3
20260506200936 12 125 4.8 12.9 0.00 0.00 0.00 83 1018.4
20260506200435 12 120 3.2 12.9 0.00 0.00 0.00 83 1018.3
20260506195933 12 141 3.2 12.9 0.00 0.00 0.00 83 1018.3
20260506195434 12 128 3.2 12.9 0.00 0.00 0.00 84 1018.3
20260506194933 11 148 4.8 12.9 0.00 0.00 0.00 84 1018.2
20260506194433 11 117 4.8 12.9 0.00 0.00 0.00 84 1018.2
20260506193933 11 101 4.8 14.5 0.00 0.00 0.00 84 1018.1
20260506193433 11 115 4.8 14.5 0.00 0.00 0.00 84 1018.2
20260506192933 11 136 3.2 9.7 0.00 0.00 0.00 86 1018.1
20260506192433 11 126 3.2 11.3 0.00 0.00 0.00 86 1018.1
20260506191933 11 92 3.2 11.3 0.00 0.00 0.00 86 1018.0
20260506190931 11 109 3.2 9.7 0.00 0.00 0.00 87 1018.0
20260506190428 11 137 4.8 9.7 0.00 0.00 0.00 87 1018.0
20260506185931 11 136 3.2 11.3 0.00 0.00 0.00 87 1018.0
20260506185429 11 116 3.2 11.3 0.00 0.00 0.00 87 1018.0
20260506184427 11 136 3.2 11.3 0.00 0.00 0.00 87 1018.0
20260506183425 11 116 4.8 14.5 0.00 0.00 0.00 87 1017.9
20260506182926 11 137 3.2 14.5 0.00 0.00 0.00 88 1017.9
20260506182425 11 128 3.2 12.9 0.00 0.00 0.00 87 1017.9
20260506181925 11 158 3.2 11.3 0.00 0.00 0.00 87 1017.9
20260506181425 11 182 4.8 11.3 0.00 0.00 0.00 87 1017.9
20260506180422 11 105 3.2 12.9 0.00 0.00 0.00 87 1017.9
20260506175923 11 130 4.8 12.9 0.00 0.00 0.00 86 1017.9
20260506175421 11 126 4.8 11.3 0.00 0.00 0.00 86 1017.9
20260506174921 11 148 4.8 11.3 0.00 0.00 0.00 86 1017.9
20260506174420 11 112 4.8 11.3 0.00 0.00 0.00 86 1017.8
20260506173921 11 123 4.8 12.9 0.00 0.00 0.00 86 1017.6
20260506172919 11 135 3.2 11.3 0.00 0.00 0.00 87 1017.6
20260506172419 11 140 3.2 11.3 0.00 0.00 0.00 87 1017.5
20260506171919 11 150 3.2 11.3 0.00 0.00 0.00 88 1017.5
20260506170919 11 137 1.6 8.0 0.00 0.00 0.00 89 1017.4
20260506170419 11 134 1.6 6.4 0.00 0.00 0.00 89 1017.3
20260506164914 11 177 1.6 11.3 0.00 0.00 0.00 89 1017.5
20260506163911 11 135 3.2 9.7 0.00 0.00 0.00 88 1017.4
20260506163411 11 122 1.6 6.4 0.00 0.00 0.00 88 1017.3
20260506162911 11 114 1.6 6.4 0.00 0.00 0.00 89 1017.4
20260506162411 11 147 1.6 4.8 0.00 0.00 0.00 88 1017.4
20260506161924 11 161 1.6 6.4 0.00 0.00 0.00 88 1017.4
20260506161410 11 193 1.6 6.4 0.00 0.00 0.00 88 1017.5
20260506160911 11 195 1.6 6.4 0.00 0.00 0.00 88 1017.5
20260506160411 11 138 3.2 8.0 0.00 0.00 0.00 88 1017.5
20260506155911 11 144 3.2 11.3 0.00 0.00 0.00 88 1017.5
20260506155410 11 121 3.2 11.3 0.00 0.00 0.00 87 1017.6
20260506154914 11 155 3.2 11.3 0.00 0.00 0.00 88 1017.7
20260506154409 11 132 1.6 8.0 0.00 0.00 0.00 88 1017.5
20260506153908 11 145 3.2 11.3 0.00 0.00 0.00 88 1017.5
20260506153408 11 172 3.2 11.3 0.00 0.00 0.00 87 1017.5
20260506152909 11 133 3.2 11.3 0.00 0.00 0.00 87 1017.5
20260506152408 11 130 3.2 11.3 0.00 0.00 0.00 86 1017.4
20260506151910 11 147 3.2 11.3 0.00 0.00 0.00 87 1017.3
20260506151409 11 126 1.6 6.4 0.00 0.00 0.00 86 1017.3
20260506150907 11 132 0.0 3.2 0.00 0.00 0.00 86 1017.1
20260506150404 11 132 0.0 6.4 0.00 0.00 0.00 87 1017.0
20260506145905 11 132 0.0 6.4 0.00 0.00 0.00 86 1017.0
20260506145402 11 72 0.0 3.2 0.00 0.00 0.00 87 1017.0
20260506144903 11 70 0.0 1.6 0.00 0.00 0.00 87 1017.0
20260506144402 11 70 0.0 3.2 0.00 0.00 0.00 87 1016.8
20260506143903 11 70 1.6 6.4 0.00 0.00 0.00 86 1016.8
20260506142356 11 7 1.6 4.8 0.00 0.00 0.00 87 1016.6
20260506141855 11 120 1.6 8.0 0.00 0.00 0.00 87 1016.8
20260506141355 11 127 1.6 8.0 0.00 0.00 0.00 87 1016.9
20260506140352 10 100 3.2 9.7 0.00 0.00 0.00 87 1016.7
20260506135852 10 123 1.6 6.4 0.00 0.00 0.00 87 1016.8
20260506135352 10 143 1.6 6.4 0.00 0.00 0.00 88 1016.8
20260506134853 10 272 1.6 4.8 0.00 0.00 0.00 88 1016.7
20260506134353 10 51 1.6 8.0 0.00 0.00 0.00 88 1016.6
20260506133353 10 98 0.0 6.4 0.00 0.00 0.00 88 1016.4
20260506132853 10 98 1.6 6.4 0.00 0.00 0.00 87 1016.3
20260506132353 10 124 1.6 6.4 0.00 0.00 0.00 88 1016.3
20260506131853 10 123 1.6 8.0 0.00 0.00 0.00 88 1016.3
20260506131353 10 123 1.6 8.0 0.00 0.00 0.00 88 1016.3
20260506130353 10 118 3.2 11.3 0.00 0.00 0.00 87 1016.4
20260506125852 10 110 1.6 9.7 0.00 0.00 0.00 88 1016.4
20260506125353 10 103 1.6 8.0 0.00 0.00 0.00 88 1016.4
20260506124852 10 101 3.2 9.7 0.00 0.00 0.00 88 1016.2
20260506124353 10 106 1.6 9.7 0.00 0.00 0.00 88 1016.2
20260506123853 10 108 1.6 4.8 0.00 0.00 0.00 88 1016.3
20260506123352 10 106 1.6 9.7 0.00 0.00 0.00 88 1016.4
20260506122347 10 93 3.2 11.3 0.00 0.00 0.00 88 1016.3
20260506121846 10 115 3.2 11.3 0.00 0.00 0.00 88 1016.4
20260506120844 10 82 1.6 8.0 0.00 0.00 0.00 88 1016.2
20260506120342 10 182 1.6 8.0 0.00 0.00 0.00 88 1016.0
20260506115342 10 114 1.6 8.0 0.00 0.00 0.00 88 1015.9
20260506114843 10 62 1.6 6.4 0.00 0.00 0.00 88 1015.9
20260506114341 10 138 1.6 6.4 0.00 0.00 0.00 88 1015.9
20260506113839 10 175 1.6 6.4 0.00 0.00 0.00 88 1015.9
20260506113336 10 89 3.2 8.0 0.00 0.00 0.00 88 1015.9
20260506112331 10 106 1.6 12.9 0.00 0.00 0.00 89 1015.9
20260506111829 10 133 1.6 8.0 0.00 0.00 0.00 89 1015.9
20260506111324 10 168 1.6 6.4 0.00 0.00 0.00 89 1015.8
20260506110817 10 61 1.6 6.4 0.00 0.00 0.00 89 1015.6